This is the latest recevied weather packets stored in our database for station/object WD4IXD. If no packets are shown the sender has not sent any weather packets the latest 10 day(s).
| Time | Temp. | Humidity | Pressure | Rain* | Wind** | Luminosity | Snow |
|---|---|---|---|---|---|---|---|
| 1777740915 | 17.78° C | 20% | 1022.1 hPa | 0 mm | - | 838 W/m² | - |
| 1777740615 | 17.78° C | 20% | 1022.1 hPa | 0 mm | - | 824 W/m² | - |
| 1777740315 | 17.78° C | 21% | 1022 hPa | 0 mm | - | 793 W/m² | - |
| 1777740015 | 17.78° C | 20% | 1022 hPa | 0 mm | - | 758 W/m² | - |
| 1777739715 | 17.22° C | 21% | 1022.1 hPa | 0 mm | - | 722 W/m² | - |
| 1777739415 | 17.78° C | 20% | 1022 hPa | 0 mm | - | 673 W/m² | - |
| 1777739104 | 17.78° C | 21% | 1022 hPa | 0 mm | - | 645 W/m² | - |
| 1777738815 | 17.22° C | 21% | 1022.1 hPa | 0 mm | - | 610 W/m² | - |
| 1777738504 | 17.22° C | 23% | 1022.1 hPa | 0 mm | - | 589 W/m² | - |
| 1777738215 | 17.22° C | 23% | 1022.1 hPa | 0 mm | - | 573 W/m² | - |
| 1777737904 | 17.22° C | 23% | 1022.1 hPa | 0 mm | - | 570 W/m² | - |
| 1777737615 | 17.22° C | 24% | 1022.1 hPa | 0 mm | - | 570 W/m² | - |
| 1777737304 | 16.11° C | 26% | 1022.2 hPa | 0 mm | - | 568 W/m² | - |
| 1777737015 | 15.56° C | 26% | 1022.3 hPa | 0 mm | - | 577 W/m² | - |
| 1777736704 | 15.56° C | 27% | 1022.3 hPa | 0 mm | - | 591 W/m² | - |
| 1777736415 | 15° C | 28% | 1022.4 hPa | 0 mm | - | 591 W/m² | - |
| 1777736115 | 14.44° C | 28% | 1022.4 hPa | 0 mm | - | 598 W/m² | - |
| 1777735804 | 13.89° C | 29% | 1022.5 hPa | 0 mm | - | 603 W/m² | - |
| 1777735515 | 13.89° C | 30% | 1022.6 hPa | 0 mm | - | 603 W/m² | - |
| 1777735215 | 13.89° C | 30% | 1022.6 hPa | 0 mm | - | 596 W/m² | - |
| 1777734904 | 13.33° C | 31% | 1022.7 hPa | 0 mm | - | 585 W/m² | - |
| 1777734615 | 12.78° C | 31% | 1022.8 hPa | 0 mm | - | 566 W/m² | - |
| 1777734303 | 12.78° C | 32% | 1022.8 hPa | 0 mm | - | 513 W/m² | - |
| 1777734015 | 12.22° C | 35% | 1022.8 hPa | 0 mm | - | 420 W/m² | - |
| 1777733704 | 11.67° C | 35% | 1022.8 hPa | 0 mm | - | 352 W/m² | - |
* Rain latest hour (hover to see other rain measurements)
** Current wind speed in m/s (hover to see current wind gust speed)